Weather History for Olivia, MN

Change the Weather History Date:

Monday, April 1, 2013

  Actual Average (KRWF) Record (KRWF)
Temperature  
Mean Temperature 26 °F -  
Max Temperature 32 °F 47 °F 72 °F (2012)
Min Temperature 19 °F 29 °F 10 °F (1975)
Degree Days  
Heating Degree Days 40    
Moisture  
Dew Point 18 °F    
Average Humidity 72    
Maximum Humidity 80    
Minimum Humidity 64    
Precipitation  
Precipitation 0.00 in - - ()
Sea Level Pressure  
Sea Level Pressure 30.25 in    
Wind  
Wind Speed 15 mph (NW)    
Max Wind Speed 22 mph    
Max Gust Speed 28 mph    
Visibility 10 miles    
Events      
Averages and records for this station are not official NWS values.
T = Trace of Precipitation, MM = Missing Value Source: NWS Daily Summary

Daily Weather History Graph

Daily Weather History Graph

Search for Another Location

Airport:

Trip Planner

Search our weather history database for the weather conditions in past years. The results will help you decide how hot, cold, wet, or windy it might be!

Date:

Astronomy

Apr. 01, 2013 Rise Set
Actual Time 7:00 AM CDT 7:48 PM CDT
Civil Twilight 6:30 AM CDT 8:17 PM CDT
Nautical Twilight 5:55 AM CDT 8:53 PM CDT
Astronomical Twilight 5:19 AM CDT 9:29 PM CDT
Moon 1:08 AM CDT (4/1) 10:37 AM CDT (4/1)
Length of Visible Light 13h 46m
Length of Day
12h 47m
Waning Gibbous, 67% of the Moon is Illuminated
Apr 1
Waning Gibbous
Apr 2
Last Quarter
Apr 10
New
Apr 18
First Quarter
Apr 25
Full

Hourly Weather History & Observations

Time (CDT) Temp. Windchill Dew Point Humidity Pressure Visibility Wind Dir Wind Speed Gust Speed Precip Events Conditions
12:11 AM 23.0 °F 7.6 °F 15.8 °F 74% 30.16 in 10.0 mi NNW 21.9 mph 27.6 mph N/A   Clear
12:31 AM 23.0 °F 8.7 °F 15.8 °F 74% 30.16 in 10.0 mi NNW 18.4 mph 25.3 mph N/A   Clear
12:50 AM 21.2 °F 6.0 °F 14.0 °F 74% 30.16 in 10.0 mi NNW 19.6 mph 26.5 mph N/A   Clear
1:10 AM 21.2 °F 5.6 °F 14.0 °F 74% 30.16 in 10.0 mi NNW 20.7 mph 26.5 mph N/A   Clear
1:31 AM 21.2 °F 5.6 °F 14.0 °F 74% 30.17 in 10.0 mi NNW 20.7 mph 25.3 mph N/A   Clear
1:51 AM 21.2 °F 6.4 °F 14.0 °F 74% 30.17 in 10.0 mi NNW 18.4 mph 25.3 mph N/A   Clear
2:10 AM 21.2 °F 6.8 °F 12.2 °F 68% 30.18 in 10.0 mi NNW 17.3 mph 23.0 mph N/A   Clear
2:31 AM 21.2 °F 6.8 °F 14.0 °F 74% 30.18 in 10.0 mi NNW 17.3 mph - N/A   Clear
2:50 AM 21.2 °F 7.8 °F 12.2 °F 68% 30.18 in 10.0 mi NNW 15.0 mph 19.6 mph N/A   Clear
3:11 AM 21.2 °F 7.3 °F 12.2 °F 68% 30.19 in 10.0 mi NNW 16.1 mph - N/A   Clear
3:30 AM 21.2 °F 9.5 °F 12.2 °F 68% 30.19 in 10.0 mi NW 11.5 mph - N/A   Clear
3:51 AM 21.2 °F 8.9 °F 12.2 °F 68% 30.20 in 10.0 mi NNW 12.7 mph 18.4 mph N/A   Clear
4:10 AM 21.2 °F 9.5 °F 14.0 °F 74% 30.20 in 10.0 mi NW 11.5 mph - N/A   Clear
4:30 AM 21.2 °F 8.9 °F 14.0 °F 74% 30.21 in 10.0 mi NW 12.7 mph - N/A   Clear
4:51 AM 21.2 °F 10.1 °F 14.0 °F 74% 30.21 in 10.0 mi NW 10.4 mph - N/A   Clear
5:11 AM 19.4 °F 7.2 °F 14.0 °F 80% 30.22 in 10.0 mi NW 11.5 mph - N/A   Clear
5:31 AM 19.4 °F 7.2 °F 14.0 °F 80% 30.22 in 10.0 mi NW 11.5 mph - N/A   Clear
5:50 AM 19.4 °F 7.9 °F 14.0 °F 80% 30.23 in 10.0 mi NW 10.4 mph - N/A   Clear
6:11 AM 19.4 °F 7.9 °F 12.2 °F 74% 30.24 in 10.0 mi NW 10.4 mph - N/A   Clear
6:30 AM 19.4 °F 7.9 °F 14.0 °F 80% 30.24 in 10.0 mi NW 10.4 mph - N/A   Clear
7:11 AM 19.4 °F 9.5 °F 12.2 °F 74% 30.26 in 10.0 mi WNW 8.1 mph - N/A   Clear
7:31 AM 21.2 °F 8.9 °F 14.0 °F 74% 30.26 in 10.0 mi NW 12.7 mph 17.3 mph N/A   Clear
7:50 AM 21.2 °F 8.9 °F 14.0 °F 74% 30.27 in 10.0 mi NW 12.7 mph - N/A   Clear
8:11 AM 21.2 °F 8.9 °F 14.0 °F 74% 30.28 in 10.0 mi NW 12.7 mph - N/A   Clear
8:31 AM 21.2 °F 7.8 °F 14.0 °F 74% 30.28 in 10.0 mi NW 15.0 mph 19.6 mph N/A   Clear
9:11 AM 23.0 °F 10.1 °F 15.8 °F 74% 30.28 in 10.0 mi NW 15.0 mph - N/A   Clear
9:31 AM 23.0 °F 11.1 °F 14.0 °F 68% 30.29 in 10.0 mi NW 12.7 mph - N/A   Clear
9:50 AM 24.8 °F 14.0 °F 15.8 °F 69% 30.29 in 10.0 mi NW 11.5 mph 20.7 mph N/A   Clear
10:11 AM 24.8 °F 12.4 °F 17.6 °F 74% 30.29 in 10.0 mi NW 15.0 mph 20.7 mph N/A   Clear
10:31 AM 26.6 °F 15.2 °F 17.6 °F 69% 30.29 in 10.0 mi NW 13.8 mph - N/A   Clear
10:51 AM 26.6 °F 14.7 °F 17.6 °F 69% 30.29 in 10.0 mi NNW 15.0 mph 20.7 mph N/A   Scattered Clouds
11:11 AM 28.4 °F 17.0 °F 17.6 °F 64% 30.29 in 10.0 mi NW 15.0 mph 20.7 mph N/A   Scattered Clouds
11:31 AM 26.6 °F 15.7 °F 17.6 °F 69% 30.30 in 10.0 mi NNW 12.7 mph 21.9 mph N/A   Scattered Clouds
12:11 PM 28.4 °F 17.0 °F 19.4 °F 69% 30.30 in 10.0 mi NW 15.0 mph 21.9 mph N/A   Scattered Clouds
12:31 PM 30.2 °F 19.8 °F 19.4 °F 64% 30.30 in 10.0 mi NW 13.8 mph 20.7 mph N/A   Clear
12:51 PM 30.2 °F 19.8 °F 21.2 °F 69% 30.29 in 10.0 mi NW 13.8 mph 21.9 mph N/A   Clear
1:10 PM 30.2 °F 18.5 °F 21.2 °F 69% 30.29 in 10.0 mi NW 17.3 mph 24.2 mph N/A   Scattered Clouds
1:31 PM 30.2 °F 18.5 °F 21.2 °F 69% 30.29 in 10.0 mi NW 17.3 mph 20.7 mph N/A   Clear
1:51 PM 30.2 °F 20.2 °F 21.2 °F 69% 30.29 in 10.0 mi NW 12.7 mph 23.0 mph N/A   Clear
2:10 PM 30.2 °F 19.3 °F 21.2 °F 69% 30.29 in 10.0 mi NW 15.0 mph 19.6 mph N/A   Clear
2:31 PM 30.2 °F 19.3 °F 21.2 °F 69% 30.28 in 10.0 mi WNW 15.0 mph 23.0 mph N/A   Clear
3:11 PM 32.0 °F 21.6 °F 21.2 °F 64% 30.28 in 10.0 mi NW 15.0 mph 19.6 mph N/A   Clear
3:30 PM 32.0 °F 22.1 °F 21.2 °F 64% 30.28 in 10.0 mi NW 13.8 mph 19.6 mph N/A   Clear
3:51 PM 32.0 °F 22.1 °F 21.2 °F 64% 30.28 in 10.0 mi NW 13.8 mph 17.3 mph N/A   Clear
4:10 PM 32.0 °F 20.8 °F 21.2 °F 64% 30.28 in 10.0 mi NW 17.3 mph - N/A   Clear
4:30 PM 32.0 °F 21.6 °F 23.0 °F 69% 30.28 in 10.0 mi NW 15.0 mph 20.7 mph N/A   Clear
4:51 PM 32.0 °F 21.6 °F 23.0 °F 69% 30.28 in 10.0 mi NW 15.0 mph 18.4 mph N/A   Clear
5:11 PM 32.0 °F 21.2 °F 21.2 °F 64% 30.28 in 10.0 mi NW 16.1 mph - N/A   Clear
5:30 PM 32.0 °F 21.6 °F 21.2 °F 64% 30.27 in 10.0 mi NNW 15.0 mph - N/A   Clear
5:51 PM 32.0 °F 22.1 °F 21.2 °F 64% 30.27 in 10.0 mi NW 13.8 mph 19.6 mph N/A   Clear
6:10 PM 32.0 °F 24.2 °F 21.2 °F 64% 30.27 in 10.0 mi NW 9.2 mph - N/A   Clear
6:31 PM 30.2 °F 20.2 °F 21.2 °F 69% 30.26 in 10.0 mi NW 12.7 mph 16.1 mph N/A   Clear
6:51 PM 30.2 °F 20.8 °F 21.2 °F 69% 30.26 in 10.0 mi NW 11.5 mph 17.3 mph N/A   Clear
7:11 PM 30.2 °F 20.8 °F 21.2 °F 69% 30.26 in 10.0 mi NNW 11.5 mph - N/A   Clear
7:30 PM 30.2 °F 21.9 °F 23.0 °F 75% 30.26 in 10.0 mi NW 9.2 mph - N/A   Clear
7:51 PM 30.2 °F 20.2 °F 23.0 °F 75% 30.26 in 10.0 mi NW 12.7 mph - N/A   Clear
8:10 PM 28.4 °F 19.1 °F 19.4 °F 69% 30.26 in 10.0 mi NW 10.4 mph - N/A   Clear
8:30 PM 28.4 °F 19.1 °F 21.2 °F 74% 30.26 in 10.0 mi NW 10.4 mph - N/A   Clear
8:51 PM 28.4 °F 19.7 °F 21.2 °F 74% 30.26 in 10.0 mi NW 9.2 mph - N/A   Clear
9:11 PM 28.4 °F 22.2 °F 21.2 °F 74% 30.28 in 10.0 mi NW 5.8 mph - N/A   Clear
9:30 PM 28.4 °F 20.4 °F 21.2 °F 74% 30.28 in 10.0 mi NW 8.1 mph - N/A   Clear
9:51 PM 26.6 °F 18.2 °F 19.4 °F 74% 30.28 in 10.0 mi NW 8.1 mph - N/A   Clear
10:10 PM 26.6 °F 18.2 °F 19.4 °F 74% 30.28 in 10.0 mi NW 8.1 mph - N/A   Clear
10:31 PM 26.6 °F 18.2 °F 21.2 °F 80% 30.28 in 10.0 mi NW 8.1 mph - N/A   Clear
10:51 PM 26.6 °F 19.1 °F 21.2 °F 80% 30.28 in 10.0 mi NW 6.9 mph - N/A   Clear
11:11 PM 26.6 °F 18.2 °F 21.2 °F 80% 30.28 in 10.0 mi NW 8.1 mph - N/A   Clear
11:31 PM 26.6 °F 20.0 °F 21.2 °F 80% 30.28 in 10.0 mi NW 5.8 mph - N/A   Clear
11:50 PM 26.6 °F 22.6 °F 21.2 °F 80% 30.28 in 10.0 mi NW 3.5 mph - N/A   Clear